Date,TemperatureHighF,TemperatureAvgF,TemperatureLowF,DewpointHighF,DewpointAvgF,DewpointLowF,HumidityHigh,HumidityAvg,HumidityLow,PressureMaxIn,PressureMinIn,WindSpeedMaxMPH,WindSpeedAvgMPH,GustSpeedMaxMPH,PrecipitationSumIn
2013-1-1,31.0,18.0,5.0,28.0,11.1,0.0,93,74,58,29.90,29.62,11,2,33,0.00
2013-1-2,15.0,5.0,-10.0,12.0,0.3,-15.0,90,81,68,30.18,29.81,11,1,19,0.00
2013-1-3,11.0,-4.1,-18.0,1.0,-9.7,-22.0,86,77,57,30.19,29.88,3,0,6,0.00
2013-1-4,33.0,20.2,1.0,27.0,15.4,-2.0,94,82,65,29.88,29.69,15,3,26,0.00
2013-1-5,32.0,22.9,7.0,27.0,15.3,4.0,88,73,57,30.20,29.73,12,3,28,0.00
2013-1-6,28.0,19.5,7.0,27.0,17.2,4.0,95,91,88,30.17,29.85,1,0,4,0.00
2013-1-7,31.0,18.0,3.0,30.0,13.5,0.0,95,83,64,30.32,29.90,5,1,9,0.01
2013-1-8,41.0,24.1,4.0,25.0,17.7,1.0,95,78,52,30.34,30.13,7,1,16,0.01
2013-1-9,43.0,23.2,7.0,33.0,18.4,4.0,91,83,62,30.35,29.85,11,2,25,0.14
2013-1-10,40.0,34.0,24.0,31.0,25.4,20.0,86,71,62,30.53,29.95,15,5,33,0.01
2013-1-11,34.0,26.8,17.0,32.0,23.4,15.0,93,87,66,30.53,30.09,5,0,10,0.04
2013-1-12,46.0,35.1,32.0,41.0,33.4,30.0,96,93,79,30.12,30.04,3,0,5,0.01
2013-1-13,51.0,35.7,32.0,49.0,34.2,31.0,98,95,80,30.11,29.86,7,0,14,0.00
2013-1-14,49.0,38.6,32.0,46.0,31.8,24.0,97,78,49,30.25,29.78,10,2,23,0.00
2013-1-15,33.0,29.8,25.0,25.0,21.0,19.0,80,70,59,30.30,30.21,5,1,9,0.00
2013-1-16,30.0,26.6,22.0,27.0,23.3,20.0,94,88,80,30.21,29.73,2,0,7,0.00
2013-1-17,33.0,20.5,7.0,29.0,13.6,-3.0,95,75,47,30.12,29.73,9,1,16,0.00
2013-1-18,18.0,5.9,-7.0,4.0,-4.6,-12.0,84,63,40,30.29,30.10,7,1,21,0.00
2013-1-19,40.0,28.9,10.0,29.0,21.3,6.0,92,74,53,30.18,29.70,9,2,16,0.00
2013-1-20,46.0,33.9,16.0,32.0,21.3,2.0,85,60,47,29.90,29.38,15,7,35,0.01
2013-1-21,21.0,12.3,0.0,10.0,3.4,-4.0,86,68,44,30.00,29.77,7,1,15,0.00
2013-1-22,17.0,8.6,-1.0,7.0,0.9,-10.0,87,72,52,30.01,29.74,9,2,20,0.00
2013-1-23,2.0,-5.2,-15.0,-6.0,-14.4,-20.0,78,65,43,30.11,30.00,7,2,15,0.00
2013-1-24,11.0,-3.7,-17.0,-6.0,-13.8,-22.0,92,64,38,30.27,30.05,11,2,25,0.00
2013-1-25,15.0,4.3,-7.0,1.0,-5.7,-12.0,80,64,45,30.30,30.04,7,1,10,0.00
2013-1-26,14.0,7.7,-2.0,6.0,-1.5,-7.0,84,67,42,30.22,30.03,10,2,18,0.00
2013-1-27,20.0,9.2,0.0,6.0,-1.9,-5.0,84,63,34,30.45,30.22,9,2,16,0.00
2013-1-28,18.0,9.2,-2.0,16.0,5.2,-6.0,91,84,66,30.43,29.98,3,0,6,0.00
2013-1-29,31.0,24.0,16.0,29.0,21.5,13.0,94,90,84,30.15,29.99,4,0,7,0.05
2013-1-30,45.0,36.2,30.0,44.0,35.0,28.0,97,96,94,29.99,29.28,5,1,11,0.05
2013-1-31,42.0,31.9,23.0,40.0,21.1,8.0,97,65,50,29.47,28.94,17,7,34,0.13
2013-2-1,22.0,16.9,11.0,10.0,6.3,2.0,77,63,51,30.05,29.47,17,4,25,0.00
2013-2-2,20.0,13.8,4.0,13.0,6.5,0.0,86,73,55,30.12,29.98,10,2,18,0.00
2013-2-3,29.0,14.0,1.0,16.0,7.2,-2.0,89,75,45,29.99,29.70,5,0,8,0.00
2013-2-4,23.0,16.9,7.0,14.0,4.4,-5.0,90,61,32,29.87,29.67,13,3,25,0.00
2013-2-5,23.0,10.2,-4.0,7.0,-0.9,-8.0,85,62,38,29.98,29.86,6,1,12,0.00
2013-2-6,27.0,17.8,6.0,23.0,9.4,-6.0,85,70,48,30.31,29.83,6,1,12,0.02
2013-2-7,17.0,10.0,2.0,0.0,-4.7,-9.0,69,51,37,30.50,30.31,7,1,14,0.00
2013-2-8,23.0,17.8,13.0,20.0,13.7,1.0,91,84,58,30.40,29.89,4,0,13,0.00
2013-2-9,17.0,12.3,5.0,15.0,5.0,-2.0,90,73,54,30.28,29.88,12,5,26,0.00
2013-2-10,34.0,10.1,-8.0,12.0,0.3,-12.0,85,68,31,30.42,30.27,4,0,8,0.01
2013-2-11,33.0,21.7,4.0,32.0,18.6,1.0,95,87,66,30.26,29.57,4,0,10,0.00
2013-2-12,36.0,33.8,30.0,32.0,28.6,25.0,95,81,72,29.81,29.55,8,2,19,0.01
2013-2-13,38.0,31.4,28.0,26.0,23.3,19.0,87,73,48,29.81,29.72,7,1,15,0.00
2013-2-14,36.0,28.5,23.0,25.0,21.6,19.0,89,76,53,29.92,29.71,5,0,12,0.00
2013-2-15,44.0,32.8,22.0,32.0,24.1,18.0,92,72,47,29.92,29.82,11,2,25,0.01
2013-2-16,32.0,25.6,18.0,25.0,14.0,3.0,89,62,43,29.96,29.86,9,2,15,0.00
2013-2-17,18.0,12.2,10.0,5.0,2.4,0.0,73,64,53,29.86,29.60,12,4,30,0.00
2013-2-18,23.0,12.8,6.0,2.0,-1.1,-5.0,71,56,29,30.10,29.78,13,3,24,0.00
2013-2-19,39.0,23.7,5.0,30.0,13.1,-2.0,93,66,32,30.11,29.56,9,1,25,0.00
2013-2-20,32.0,26.4,21.0,30.0,20.6,16.0,94,79,58,29.71,29.54,9,2,18,0.01
2013-2-21,22.0,17.2,10.0,18.0,10.4,4.0,87,75,59,30.29,29.71,10,2,22,0.00
2013-2-22,33.0,24.6,11.0,24.0,19.1,8.0,92,80,63,30.40,30.22,4,1,8,0.01
2013-2-23,32.0,30.3,25.0,30.0,26.1,22.0,95,85,73,30.22,29.90,8,2,18,0.01
2013-2-24,39.0,32.1,29.0,35.0,30.1,27.0,100,92,85,29.91,29.74,3,0,10,0.07
2013-2-25,36.0,32.0,29.0,31.0,28.9,27.0,94,89,78,30.21,29.91,6,1,10,0.01
2013-2-26,42.0,34.2,28.0,36.0,28.9,27.0,96,82,61,30.30,30.12,10,2,18,0.01
2013-2-27,35.0,33.0,31.0,33.0,30.0,27.0,95,89,74,30.12,29.62,7,1,13,0.05
2013-2-28,45.0,35.1,31.0,38.0,32.8,30.0,96,91,75,29.62,29.54,5,0,8,0.25
2013-3-1,36.0,31.7,30.0,31.0,27.5,26.0,95,84,71,29.72,29.56,11,3,19,0.00
2013-3-2,33.0,28.7,23.0,26.0,23.8,19.0,90,82,72,29.74,29.69,10,3,19,0.00
2013-3-3,35.0,26.3,21.0,27.0,22.1,19.0,92,84,71,29.71,29.62,5,1,12,0.03
2013-3-4,29.0,25.0,22.0,21.0,19.6,18.0,88,80,69,29.84,29.65,9,2,23,0.00
2013-3-5,37.0,29.8,24.0,28.0,24.5,20.0,90,81,69,30.08,29.84,7,1,15,0.00
2013-3-6,41.0,33.9,27.0,31.0,26.4,23.0,93,75,56,30.17,30.07,7,1,18,0.00
2013-3-7,36.0,32.3,30.0,24.0,22.6,20.0,72,67,61,30.17,30.11,7,2,15,0.00
2013-3-8,43.0,32.8,25.0,27.0,24.2,21.0,88,71,51,30.29,30.11,10,2,20,0.00
2013-3-9,52.0,31.7,16.0,29.0,21.7,14.0,94,71,30,30.33,30.26,8,1,15,0.01
2013-3-10,54.0,36.1,20.0,31.0,24.8,18.0,94,69,34,30.33,30.13,8,1,12,0.00
2013-3-11,55.0,39.8,32.0,36.0,31.2,27.0,90,74,34,30.17,29.96,9,2,19,0.00
2013-3-12,45.0,39.7,35.0,44.0,37.7,32.0,100,92,74,29.97,29.68,8,1,18,0.31
2013-3-13,40.0,34.5,27.0,35.0,30.6,25.0,96,87,59,29.79,29.72,7,1,13,0.01
2013-3-14,29.0,23.5,16.0,27.0,16.5,6.0,94,75,56,29.86,29.70,10,3,20,0.01
2013-3-15,34.0,23.1,12.0,26.0,13.0,4.0,90,67,36,29.87,29.54,11,2,21,0.00
2013-3-16,29.0,22.7,13.0,21.0,13.8,9.0,86,69,48,29.88,29.67,7,2,16,0.05
2013-3-17,24.0,14.0,3.0,14.0,4.7,0.0,90,69,41,30.31,29.88,11,2,23,0.00
2013-3-18,36.0,18.4,-1.0,19.0,5.3,-4.0,89,61,28,30.40,30.12,9,1,20,0.00
2013-3-19,31.0,27.7,25.0,28.0,24.8,16.0,93,89,56,30.13,29.69,9,1,20,0.00
2013-3-20,33.0,26.8,19.0,28.0,22.2,16.0,94,83,63,29.69,29.61,8,2,15,0.03
2013-3-21,36.0,24.9,12.0,22.0,15.5,9.0,91,70,41,29.70,29.59,8,2,13,0.17
2013-3-22,36.0,23.4,8.0,22.0,16.0,5.0,91,75,49,29.72,29.61,9,2,15,0.02
2013-3-23,36.0,29.9,24.0,25.0,22.6,19.0,91,74,53,29.78,29.62,15,4,26,0.01
2013-3-24,38.0,31.9,21.0,26.0,23.3,17.0,86,71,56,29.85,29.76,9,2,22,0.01
2013-3-25,45.0,30.6,14.0,29.0,21.6,12.0,92,72,43,29.80,29.54,8,2,15,0.00
2013-3-26,43.0,35.5,26.0,28.0,24.4,22.0,86,65,45,29.79,29.59,10,3,23,0.00
2013-3-27,46.0,35.0,24.0,32.0,26.9,21.0,91,74,50,29.91,29.76,12,2,22,0.00
2013-3-28,47.0,37.2,32.0,35.0,31.6,29.0,95,81,57,30.03,29.90,8,1,15,0.00
2013-3-29,46.0,38.3,32.0,37.0,32.1,30.0,95,80,57,30.06,29.99,7,2,14,0.00
2013-3-30,49.0,36.6,25.0,33.0,23.6,16.0,100,65,27,30.09,30.03,12,2,21,0.01
2013-3-31,55.0,37.6,20.0,37.0,24.0,-99.9,94,65,30,30.09,29.74,11,3,22,0.00
2013-4-1,47.0,37.1,29.0,41.0,29.7,14.0,96,77,40,29.75,29.49,9,2,22,0.04
2013-4-2,32.0,27.3,23.0,16.0,12.3,8.0,65,53,41,29.85,29.73,12,6,26,0.00
2013-4-3,39.0,30.9,24.0,21.0,12.0,7.0,65,46,29,30.16,29.84,14,7,31,0.00
2013-4-4,49.0,38.6,26.0,25.0,16.0,10.0,60,41,25,30.22,29.88,11,4,23,0.00
2013-4-5,47.0,40.1,31.0,32.0,22.7,15.0,80,51,34,29.94,29.76,9,4,20,0.00
2013-4-6,38.0,28.7,22.0,16.0,9.9,6.0,64,46,27,30.28,29.94,15,5,28,0.00
2013-4-7,55.0,39.7,27.0,34.0,24.3,16.0,78,56,34,30.25,29.82,12,3,32,0.00
2013-4-8,56.0,44.5,36.0,39.0,33.2,30.0,84,66,41,30.12,29.85,8,2,19,0.00
2013-4-9,52.0,43.1,37.0,44.0,38.5,32.0,97,84,64,30.02,29.82,8,2,20,0.02
2013-4-10,51.0,42.6,38.0,45.0,39.6,36.0,97,90,71,30.00,29.90,5,1,7,0.05
2013-4-11,40.0,36.1,31.0,37.0,25.4,18.0,95,68,45,30.18,29.90,9,2,14,0.00
2013-4-12,33.0,31.4,30.0,31.0,26.5,18.0,94,83,56,30.18,29.83,9,2,16,0.00
2013-4-13,48.0,38.0,32.0,39.0,34.1,31.0,97,86,63,29.88,29.77,9,1,14,0.54
2013-4-14,47.0,36.9,29.0,40.0,32.7,26.0,97,85,60,30.22,29.86,8,1,18,0.01
2013-4-15,60.0,40.6,24.0,39.0,31.0,23.0,96,73,39,30.34,30.19,8,1,13,0.00
2013-4-16,60.0,49.0,34.0,54.0,43.6,32.0,93,82,61,30.24,29.92,17,3,31,0.08
2013-4-17,54.0,44.6,31.0,43.0,32.9,27.0,92,65,38,30.35,30.04,12,4,23,0.00
2013-4-18,61.0,43.5,28.0,41.0,32.8,26.0,94,69,45,30.38,29.94,15,3,26,0.01
2013-4-19,75.0,64.5,49.0,61.0,53.6,40.0,89,69,49,29.94,29.47,16,7,29,0.53
2013-4-20,51.0,43.4,33.0,47.0,30.8,17.0,93,64,39,30.24,29.62,12,5,28,0.01
2013-4-21,45.0,34.7,26.0,21.0,17.3,12.0,78,51,28,30.68,30.24,12,4,22,0.00
2013-4-22,55.0,38.5,20.0,26.0,20.4,17.0,92,55,27,30.73,30.53,11,4,19,0.00
2013-4-23,46.0,38.0,26.0,37.0,30.0,23.0,92,73,57,30.57,30.17,11,3,18,0.00
2013-4-24,76.0,57.1,41.0,52.0,41.6,36.0,88,62,23,30.16,29.63,10,2,22,0.01
2013-4-25,65.0,47.5,31.0,54.0,32.7,25.0,83,58,32,30.30,29.62,12,4,25,0.04
2013-4-26,55.0,40.1,26.0,40.0,30.6,24.0,94,72,40,30.45,30.30,9,1,15,0.00
2013-4-27,64.0,43.8,26.0,39.0,30.1,25.0,96,65,25,30.45,30.28,6,1,13,0.00
2013-4-28,73.0,50.4,27.0,44.0,32.6,-99.9,95,60,26,30.32,30.11,8,1,13,0.00
2013-4-29,67.0,54.3,39.0,48.0,41.3,36.0,91,65,37,30.21,30.11,10,2,20,0.00
2013-4-30,74.0,58.9,48.0,52.0,46.4,42.0,88,66,41,30.29,30.19,8,1,15,0.00
2013-5-1,81.0,58.7,37.0,51.0,41.8,35.0,96,62,24,30.44,30.29,7,2,13,0.00
2013-5-2,82.0,60.7,38.0,51.0,42.5,36.0,95,58,27,30.44,30.30,8,2,14,0.00
2013-5-3,72.0,56.6,39.0,46.0,37.7,28.0,83,52,31,30.51,30.32,9,3,14,0.00
2013-5-4,78.0,57.8,37.0,47.0,40.5,35.0,97,61,22,30.36,30.17,7,1,19,0.00
2013-5-5,81.0,59.2,37.0,47.0,39.2,34.0,94,55,22,30.27,30.11,6,1,14,0.00
2013-5-6,81.0,59.1,37.0,45.0,37.6,30.0,92,53,16,30.21,30.04,8,1,15,0.00
2013-5-7,84.0,60.9,38.0,49.0,41.8,36.0,96,58,20,30.14,30.02,8,1,13,0.00
2013-5-8,78.0,58.9,42.0,60.0,50.7,40.0,96,78,39,30.17,30.04,12,2,22,0.05
2013-5-9,66.0,59.2,52.0,61.0,56.9,51.0,98,92,78,30.04,29.86,5,1,9,0.06
2013-5-10,75.0,58.1,51.0,62.0,52.6,-99.9,98,88,48,29.97,29.82,3,0,8,0.02
2013-5-11,70.0,60.5,52.0,61.0,56.2,49.0,98,87,68,29.82,29.61,11,3,21,0.04
2013-5-12,63.0,52.0,42.0,51.0,40.2,-99.9,96,69,35,29.77,29.60,10,3,21,0.00
2013-5-13,49.0,42.9,35.0,36.0,29.6,25.0,92,60,45,30.03,29.74,10,4,28,0.00
2013-5-14,56.0,41.2,30.0,40.0,30.4,25.0,96,71,33,30.08,29.98,8,2,18,0.00
2013-5-15,64.0,43.0,26.0,48.0,35.5,24.0,96,79,34,30.04,29.60,11,2,21,0.03
2013-5-16,76.0,51.3,41.0,49.0,23.9,-99.9,97,64,26,29.88,29.59,19,4,33,0.00
2013-5-17,65.0,52.0,41.0,44.0,34.4,-99.9,90,65,41,30.23,29.88,11,3,25,0.00
2013-5-18,73.0,53.8,33.0,47.0,38.2,31.0,97,64,22,30.30,30.20,8,1,16,0.00
2013-5-19,70.0,54.4,39.0,56.0,47.9,37.0,96,81,48,30.29,30.12,7,1,12,0.27
2013-5-20,69.0,60.0,54.0,63.0,57.1,52.0,97,90,76,30.12,29.98,8,1,13,0.01
2013-5-21,74.0,64.3,53.0,66.0,59.4,52.0,98,86,65,30.00,29.84,7,2,14,0.08
2013-5-22,83.0,71.5,63.0,69.0,65.8,62.0,96,83,59,29.84,29.77,6,1,11,0.04
2013-5-23,77.0,67.8,60.0,67.0,62.3,59.0,98,84,61,29.79,29.71,10,3,20,0.41
2013-5-24,61.0,50.3,43.0,60.0,47.9,41.0,97,92,82,29.99,29.67,12,2,22,0.20
2013-5-25,43.0,42.8,42.0,41.0,40.8,40.0,94,93,91,29.99,29.91,6,1,15,0.04
2013-5-28,74.0,66.4,51.0,54.0,46.2,39.0,88,52,34,30.19,30.10,7,2,13,0.00
2013-5-29,67.0,57.3,51.0,61.0,55.0,48.0,97,92,80,30.12,29.94,4,0,7,0.01
2013-5-30,86.0,67.9,52.0,68.0,60.2,51.0,99,80,47,30.07,29.98,8,2,16,0.01
2013-5-31,93.0,73.4,55.0,69.0,62.0,54.0,98,73,40,30.09,29.90,8,2,19,0.00
2013-6-1,93.0,74.7,59.0,69.0,63.9,58.0,98,73,39,29.95,29.81,9,1,22,0.00
2013-6-2,88.0,73.1,64.0,74.0,65.1,-99.9,98,83,51,29.85,29.67,12,2,27,0.14
2013-6-4,65.0,57.3,46.0,47.0,44.9,42.0,92,64,47,30.11,29.96,10,4,21,0.00
2013-6-5,71.0,55.7,40.0,51.0,43.1,34.0,97,68,27,30.21,30.11,9,1,19,0.00
2013-6-6,69.0,55.5,47.0,53.0,48.1,44.0,95,78,47,30.20,30.09,6,1,13,0.11
2013-6-7,54.0,51.6,49.0,52.0,50.2,48.0,96,95,92,30.09,29.90,5,0,14,0.20
2013-6-8,66.0,56.8,51.0,58.0,53.9,50.0,98,91,73,30.02,29.77,5,1,12,0.01
2013-6-9,76.0,62.2,51.0,62.0,55.1,48.0,98,80,46,30.20,30.02,7,2,15,0.00
2013-6-10,75.0,59.8,46.0,60.0,52.4,45.0,98,80,42,30.23,30.00,6,1,18,0.14
2013-6-11,59.0,55.9,54.0,58.0,54.8,53.0,97,96,91,30.00,29.59,3,0,8,0.23
2013-6-12,68.0,58.1,51.0,56.0,53.1,48.0,97,85,61,29.86,29.60,12,2,20,0.04
2013-6-13,69.0,57.4,45.0,58.0,51.6,44.0,100,83,56,29.85,29.70,6,0,10,0.00
2013-6-14,76.0,62.9,49.0,58.0,52.3,47.0,97,72,47,29.85,29.71,9,3,20,0.00
2013-6-15,75.0,59.9,43.0,52.0,45.4,41.0,96,64,34,29.96,29.85,11,2,19,0.00
2013-6-16,73.0,57.1,45.0,60.0,53.2,44.0,97,88,53,29.93,29.69,8,1,15,0.15
2013-6-17,76.0,62.3,50.0,64.0,57.0,49.0,99,85,55,29.95,29.77,8,1,13,0.06
2013-6-18,70.0,56.3,45.0,55.0,50.3,43.0,97,83,46,30.00,29.92,9,1,14,0.01
2013-6-19,69.0,54.4,39.0,51.0,43.7,38.0,98,72,38,30.20,29.99,9,2,20,0.00
2013-6-20,79.0,54.7,38.0,52.0,43.1,37.0,99,72,30,30.27,30.20,8,1,13,0.00
2013-6-22,85.0,69.9,63.0,68.0,64.1,62.0,96,84,49,30.17,30.11,6,1,9,0.18
2013-6-23,87.0,70.8,62.0,75.0,66.8,61.0,99,89,61,30.12,29.96,8,1,18,0.22
2013-6-24,88.0,69.2,62.0,74.0,66.4,61.0,99,92,55,30.00,29.88,7,0,13,0.05
2013-6-25,90.0,69.2,61.0,74.0,66.1,60.0,98,91,52,29.93,29.76,7,1,14,0.17
2013-6-26,78.0,67.4,63.0,71.0,65.3,62.0,99,94,71,29.83,29.76,5,0,8,0.09
2013-6-27,86.0,68.9,59.0,72.0,64.3,58.0,99,88,50,29.82,29.73,5,0,11,0.00
2013-6-28,79.0,67.0,62.0,69.0,64.8,61.0,96,92,68,29.74,29.43,9,1,19,0.17
2013-6-29,82.0,69.4,62.0,68.0,63.8,61.0,98,85,52,29.69,29.50,10,2,16,0.20
2013-6-30,86.0,72.5,62.0,71.0,65.1,61.0,98,80,47,29.95,29.69,6,1,10,0.16
2013-7-1,72.0,67.5,61.0,69.0,65.6,59.0,98,94,83,30.11,29.94,5,0,9,0.14
2013-7-2,85.0,67.5,60.0,75.0,64.9,59.0,98,92,71,30.15,30.08,5,0,8,0.20
2013-7-3,88.0,72.3,64.0,75.0,69.2,63.0,98,91,60,30.19,30.12,7,1,12,0.41
2013-7-4,89.0,74.3,66.0,76.0,70.3,65.0,99,89,61,30.20,30.10,8,1,16,0.85
2013-7-5,91.0,71.7,63.0,76.0,68.5,62.0,99,91,53,30.17,30.06,7,0,13,0.01
2013-7-6,86.0,73.5,66.0,72.0,67.2,64.0,99,83,48,30.09,30.01,9,2,20,0.02
2013-7-7,87.0,71.1,60.0,73.0,65.7,59.0,98,85,51,30.05,29.93,6,0,9,0.00
2013-7-8,79.0,69.6,67.0,73.0,66.9,-99.9,98,95,79,30.06,29.96,1,0,7,0.09
2013-7-9,84.0,71.9,66.0,75.0,68.6,65.0,98,90,65,30.10,30.01,6,0,8,0.01
2013-7-10,78.0,70.9,68.0,74.0,66.3,-99.9,98,90,81,30.03,29.75,8,1,10,0.01
2013-7-11,81.0,70.5,58.0,69.0,64.3,56.0,98,83,54,30.04,29.74,10,2,21,0.02
2013-7-12,83.0,63.8,53.0,67.0,57.6,52.0,98,83,41,30.22,30.04,6,0,10,0.01
2013-7-13,81.0,68.5,54.0,69.0,61.5,53.0,98,81,54,30.32,30.23,6,1,13,0.00
2013-7-14,89.0,73.9,63.0,75.0,68.2,62.0,98,84,56,30.33,30.23,4,0,9,0.00
2013-7-15,92.0,74.9,64.0,74.0,66.7,63.0,99,80,42,30.26,30.16,9,1,15,0.00
2013-7-16,90.0,74.9,63.0,73.0,66.9,62.0,98,79,48,30.24,30.19,6,1,15,0.00
2013-7-17,95.0,73.1,62.0,73.0,66.6,61.0,98,84,45,30.22,29.99,7,1,13,0.08
2013-7-18,92.0,75.9,66.0,75.0,70.3,65.0,98,85,51,30.06,29.95,6,1,9,0.14
2013-7-19,91.0,73.7,68.0,75.0,69.4,67.0,99,88,57,29.95,29.69,6,1,10,0.04
2013-7-20,70.0,68.1,67.0,67.0,66.6,66.0,97,95,91,29.71,29.69,4,1,5,0.05
2013-9-3,77.0,66.6,59.0,65.0,60.5,57.0,97,82,54,29.82,29.71,8,2,14,0.03
2013-9-4,74.0,62.5,53.0,61.0,57.3,52.0,98,85,56,29.93,29.82,5,1,22,0.09
2013-9-5,64.0,55.3,41.0,58.0,47.4,39.0,96,78,46,30.18,29.90,8,2,20,0.04
2013-9-6,68.0,49.7,35.0,52.0,41.5,34.0,98,78,37,30.26,30.06,8,1,12,0.01
2013-9-7,67.0,49.2,46.0,55.0,47.2,45.0,97,93,58,30.06,29.97,4,0,7,0.00
2013-9-8,54.0,53.0,52.0,51.0,50.2,49.0,93,91,90,29.88,29.86,1,0,6,0.00
2013-9-11,93.0,80.1,68.0,76.0,71.6,66.0,96,78,53,30.01,29.92,11,3,20,0.18
2013-9-12,79.0,69.3,65.0,71.0,67.0,64.0,98,93,72,29.96,29.66,4,0,10,0.07
2013-9-13,66.0,58.7,53.0,65.0,56.2,50.0,98,92,84,29.85,29.63,8,2,14,0.01
2013-9-14,63.0,52.8,43.0,52.0,48.5,41.0,94,86,62,30.09,29.84,5,1,11,0.00
2013-9-15,68.0,49.1,39.0,56.0,43.8,-99.9,98,87,52,30.14,30.02,5,0,9,0.01
2013-9-16,53.0,48.2,34.0,52.0,44.2,32.0,97,87,59,30.33,30.02,8,2,19,0.02
2013-9-17,65.0,45.3,31.0,50.0,38.4,30.0,98,80,47,30.47,30.33,6,1,10,0.00
2013-9-18,39.0,36.0,35.0,37.0,35.0,34.0,96,95,94,30.33,30.31,0,0,2,0.01
2013-9-22,49.0,48.4,48.0,44.0,44.0,44.0,87,86,83,29.84,29.82,7,4,0,0.00
2013-9-23,50.0,47.1,43.0,42.0,40.2,38.0,89,77,68,30.04,29.98,5,2,0,0.00
2013-9-24,61.0,50.8,45.0,48.0,42.3,39.0,89,74,50,30.03,29.90,8,2,0,0.00
2013-9-25,63.0,51.2,40.0,50.0,45.4,39.0,97,82,62,30.03,29.92,7,2,0,0.00
2013-9-26,63.0,50.6,40.0,50.0,46.0,39.0,97,85,60,30.19,30.03,6,1,0,0.00
2013-9-27,63.0,53.0,51.0,51.0,49.8,49.0,95,89,64,30.29,30.18,4,0,0,0.00
2013-10-5,63.0,41.7,62.0,52.0,1.0,-99.9,68,45,67,30.10,30.09,0,0,5,0.00
2013-10-6,55.0,51.0,49.0,50.0,47.0,45.0,96,86,69,30.18,30.08,10,3,16,0.02
2013-10-7,68.0,58.2,52.0,64.0,54.7,47.0,95,89,79,30.08,29.60,13,4,28,0.26
2013-10-8,60.0,50.6,36.0,49.0,40.5,33.0,94,71,44,30.40,29.89,9,2,21,0.00
2013-10-9,68.0,44.4,32.0,47.0,36.0,30.0,96,78,35,30.49,30.35,4,0,9,0.01
2013-10-10,67.0,45.9,32.0,51.0,39.3,31.0,97,81,37,30.36,30.21,5,0,8,0.00
2013-10-11,43.0,40.8,39.0,41.0,39.0,37.0,95,93,91,30.21,30.18,0,0,6,0.00
2013-10-14,55.0,54.3,54.0,53.0,52.7,52.0,95,94,93,30.27,30.24,0,0,0,0.00
2013-10-15,67.0,58.2,50.0,57.0,53.6,49.0,98,85,67,30.28,30.13,7,-26,0,0.00
2013-10-16,64.0,58.0,52.0,54.0,51.8,50.0,95,80,61,30.13,29.83,7,2,0,0.00
2013-10-17,65.0,56.7,48.0,56.0,51.3,45.0,97,83,59,29.83,29.72,4,1,0,0.00
2013-10-18,62.0,53.3,44.0,53.0,46.1,37.0,97,78,55,29.88,29.62,8,2,0,0.00
2013-10-19,61.0,48.3,37.0,48.0,42.0,35.0,97,81,52,29.91,29.67,8,1,0,0.00
2013-10-20,56.0,48.6,39.0,48.0,37.4,-99.9,95,69,45,29.98,29.62,10,3,0,0.00
2013-10-21,62.0,46.0,31.0,45.0,36.6,-99.9,95,76,49,30.06,29.88,6,-12,0,0.00
2013-10-22,54.0,46.8,34.0,48.0,40.7,30.0,90,80,58,29.85,29.67,7,2,0,0.00
2013-10-23,52.0,40.2,31.0,35.0,31.7,28.0,95,74,47,29.77,29.60,9,1,0,0.00
2013-10-24,45.0,37.6,34.0,36.0,33.7,29.0,94,86,60,29.85,29.65,6,-16,0,0.00
2013-10-25,43.0,38.3,35.0,34.0,29.5,27.0,95,71,58,30.10,29.85,7,2,0,0.00
2013-10-26,45.0,36.9,27.0,36.0,31.0,24.0,95,81,54,30.10,29.78,9,-21,0,0.00
2013-10-27,47.0,41.0,32.0,38.0,31.2,-99.9,89,70,55,30.00,29.72,9,3,0,0.00
2013-10-28,45.0,34.7,24.0,37.0,27.6,-99.9,92,80,50,30.37,29.98,8,-24,21,0.00
2013-10-29,44.0,29.1,18.0,29.0,22.1,16.0,95,78,39,30.45,30.34,7,1,10,0.00
2013-10-30,43.0,33.6,24.0,35.0,29.5,21.0,93,85,71,30.34,30.17,3,0,0,0.00
2013-10-31,57.0,36.7,28.0,56.0,35.4,26.0,98,95,92,30.21,29.63,4,0,0,0.00
2013-11-1,67.0,60.9,53.0,60.0,51.2,42.0,98,73,47,29.60,29.26,13,7,0,0.00
2013-11-14,45.0,34.4,26.0,32.0,27.7,24.0,92,78,57,30.03,29.98,5,1,10,0.00
2013-11-15,55.0,34.3,25.0,32.0,25.1,23.0,93,75,31,30.16,30.03,6,1,11,0.01
2013-11-16,57.0,37.3,28.0,35.0,26.0,-99.9,92,72,34,30.27,30.16,7,1,12,0.00
2013-11-17,49.0,41.6,26.0,47.0,39.3,24.0,96,91,87,30.25,29.75,12,3,20,0.05
2013-11-18,56.0,49.9,39.0,55.0,39.9,30.0,95,70,49,29.71,29.39,10,5,26,0.10
2013-11-19,39.0,30.7,27.0,32.0,20.8,17.0,81,66,57,30.33,29.62,13,5,30,0.01
2013-11-20,36.0,27.4,18.0,20.0,18.0,15.0,89,68,47,30.63,30.33,8,2,14,0.01
2013-11-21,43.0,26.1,14.0,25.0,19.6,12.0,93,78,36,30.63,30.32,4,0,6,0.00
2013-11-22,39.0,32.3,29.0,38.0,30.1,25.0,97,91,80,30.32,29.78,1,0,15,0.02
2013-11-23,41.0,29.6,19.0,40.0,21.2,-99.9,96,74,59,29.93,29.71,17,4,27,0.03
2013-11-24,18.0,15.4,12.0,14.0,7.1,0.0,87,70,57,30.19,29.80,14,6,28,0.00
2013-11-25,32.0,20.4,7.0,18.0,6.6,-3.0,76,56,33,30.32,30.11,9,2,16,0.02
2013-11-26,34.0,31.4,30.0,29.0,23.2,13.0,93,73,47,30.21,29.99,9,2,18,0.01
2013-11-27,35.0,32.4,30.0,34.0,30.8,26.0,96,94,85,29.99,29.34,6,1,19,0.01
2013-11-28,30.0,19.4,10.0,26.0,12.4,6.0,88,74,52,30.37,29.45,11,2,29,0.02
2013-11-29,25.0,12.8,6.0,15.0,6.9,3.0,90,79,50,30.73,30.37,8,1,11,0.01
2013-11-30,25.0,15.2,-1.0,17.0,5.9,-99.9,88,71,52,30.75,30.30,8,2,15,0.00
2013-12-1,35.0,30.8,22.0,30.0,25.2,16.0,94,80,64,30.28,30.03,8,1,18,0.00
2013-12-2,35.0,31.8,28.0,33.0,29.9,27.0,95,93,89,30.03,29.88,1,0,4,0.00
2013-12-3,34.0,31.8,30.0,33.0,30.4,28.0,96,94,84,29.97,29.89,4,0,10,0.00
2013-12-4,39.0,30.5,24.0,29.0,25.8,22.0,92,83,63,30.15,29.97,5,0,8,0.01
2013-12-5,40.0,31.0,23.0,38.0,29.1,21.0,95,92,89,30.14,29.90,7,1,16,0.02
2013-12-6,38.0,34.0,31.0,37.0,31.7,28.0,97,92,83,30.11,29.86,4,0,8,0.05
2013-12-7,32.0,27.1,23.0,28.0,15.5,-99.9,89,65,55,30.42,30.09,10,2,18,0.00
2013-12-8,26.0,22.5,20.0,16.0,12.7,9.0,79,66,53,30.54,30.41,7,1,14,0.00
2013-12-9,35.0,26.8,22.0,33.0,23.0,13.0,95,86,65,30.42,29.81,7,2,16,0.00
2013-12-10,34.0,32.0,30.0,31.0,25.4,20.0,89,76,65,29.83,29.80,8,2,16,0.00
2013-12-19,34.0,31.8,30.0,29.0,28.0,27.0,92,86,79,30.04,29.92,4,0,11,0.00
2013-12-20,34.0,32.3,30.0,33.0,30.9,28.0,96,95,93,30.05,29.83,2,0,6,0.01
2013-12-21,47.0,36.1,33.0,46.0,33.2,-99.9,98,95,96,29.90,29.75,4,1,14,0.12
2013-12-22,36.0,33.4,32.0,35.0,32.4,31.0,97,96,96,29.92,29.67,5,1,12,0.04
2013-12-23,36.0,33.5,30.0,35.0,31.9,23.0,97,95,75,30.12,29.92,9,1,16,0.01
2013-12-24,26.0,17.3,6.0,17.0,10.0,1.0,90,73,55,30.26,30.07,6,2,16,0.00
2013-12-25,17.0,8.9,0.0,8.0,1.8,-4.0,86,73,55,30.49,30.27,5,1,10,0.00
2013-12-26,24.0,20.0,15.0,22.0,16.1,6.0,93,85,66,30.35,30.04,5,0,9,0.00
2013-12-27,30.0,25.1,18.0,26.0,20.4,16.0,94,83,69,30.16,30.11,6,1,13,0.01
2013-12-28,38.0,27.7,14.0,34.0,23.7,-99.9,93,89,84,30.10,29.93,7,1,13,0.00
2013-12-29,35.0,30.6,23.0,33.0,29.3,22.0,96,94,93,29.96,29.56,3,0,5,0.00
2013-12-30,34.0,18.6,2.0,33.0,12.3,-4.0,97,77,58,30.17,29.55,9,2,29,0.00
2013-12-31,16.0,8.3,1.0,11.0,2.6,-4.0,88,77,68,30.16,29.95,6,1,16,0.00
2014-1-1,17.0,11.5,0.0,10.0,3.4,-9.0,84,69,57,30.38,30.06,7,2,14,0.00
2014-1-2,2.0,-0.9,-4.0,-2.0,-6.4,-11.0,83,77,65,30.37,29.96,4,1,9,0.00